ALOS-2

Last updated on Fri Oct 04 2024 00:02:11 GMT+0000 (Coordinated Universal Time)

1 39766U 14029A 24277.25511862 -.00002125 00000+0 -27785-3 0 9992 2 39766 97.9225 12.3480 0001407 94.5258 265.6114 14.79454681559621
UTC large
Height (km)
Speed (km/s)
/
Latitude / Longitude
Inclination (degrees)
Orbital Period (minutes)
Azimuth
Elevation
Range (km)
Doppler Factor

Next 0 passes for location: London (51.5072 / 0.1276)

Sorry there are no passes over London.